Location: Fort Worth, Tx
(32.7431°N, 97.3695°W)
Time: 04:49:42
(UTC-05:00)

Altair - Pass Details

Date: 05 October 2023
Orbit: 1501 x 1682 km, 47.2° (Epoch: 06 December)

Event Time Altitude Azimuth Distance (km) Brightness Sun altitude
Rises 06:47:24 0° 295° (WNW) 4,822 - -21.6°
Reaches altitude 10° 06:50:54 10° 304° (NW) 3,862 - -20.8°
Exits shadow 06:51:55 13° 308° (NW) 3,602 9.0 -20.6°
Maximum altitude 06:59:51 36° 9° (N) 2,416 8.6 -19.0°
Drops below altitude 10° 07:08:58 10° 73° (ENE) 3,942 10.9 -17.1°
Sets 07:12:34 0° 82° (E) 4,933 12.0 -16.3°
